STARLINK-6301, 56392

Orbit data source: Space-Track

STARLINK-6301, 56392 is a payload satellite owned by SpaceX/Seattle (US) in LEO that was launched on Thu, 04 May 2023 UTC via an FALCON 9 launch vehicle from the Air Force Eastern Test Range (AFETR). Payload-class satellites include a variety of spacecraft equipped with specific instruments for various scientific and technological missions. These include communications satellites like Starlink; space stations such as the ISS; scientific satellites like the Hubble; Earth observation satellites from companies like Planet Labs, Umbra, and HawkEye 360; GPS; miniature CubeSats for education and research; and military/defense satellites.

Loading next visibility...
Identifier
56392, 2023-061U
Orbit
LEO
Country
Flag of USUS
Related business
Manufacturer
SpaceX/Seattle
Mission
Operational Commercial Communications
Bus & Motor
STARLINK, Unknown motor
Mass
305 kg wet, ~290 kg dry
Launch date (UTC)
2023-05-04 (3 years ago)
Launch vehicle
FALCON 9
Launch site
Air Force Eastern Test Range (AFETR)
Object type
Payload
Rocket body
Debris
Shape & HBR
Box + 1 Pan, 10.1 m
Radar Cross Section
11.087 m², Large (>1 m²)

Expand to show TLE details & history
Last TLE update: 2 days ago

TLE from 2 days ago
0 STARLINK-6301
1 56392U 23061U   26171.15710864 -.00000198  00000-0  23177-5 0  9990
2 56392  43.0044 328.5389 0001474 272.9697  87.0986 15.27573261172544
Epoch: 2026-06-20T03:46Z
TLE epoch observation values (Epoch: 2026-06-20T03:46:14.186Z)
Latitude
-0.00002°
Longitude
3.60401°
Altitude
482.794 km
Speed
7.626 km/s
True Right ascension
21h 54m 09s
True Declination
0° 00' 00"
Sunlit
Object was in full shadow at epoch
Visualization orbit readout
Latitude
Unknown
Longitude
Unknown
Altitude
Unknown
Speed
Unknown
Apparent Right ascension
Unknown
Apparent Declination
Unknown
Sunlit
N/A
Visualization observer readout
Local Sidereal Time
21:34:35
Azimuth
Unknown
Elevation
Unknown
Doppler factor
Unknown
Orbital elements
Apogee altitude
486.025 km
Perigee altitude
484.002 km
Semi-major axis
6,863.151 km
Eccentricity
0.00015
Inclination
43.0044°
RAAN
328.5389°
Arg. of periapsis
272.9697°
True anomaly
87.11547°
Mean anomaly
87.0986°
Eccentric anomaly
87.10703°
Mean motion
3.81731 °/min
Orbital period
94.31 mins
BSTAR
0.0000023177
Loading maneuver chart data...
Computing Atmospheric mass density...
Loading historical data...
Loading historical data...
Loading historical data...
Loading historical data...
Loading historical data...
Loading historical data...
Loading historical data...

Documentation

Showing up to 5 results
|